Regional Weather Roundup
Issued by NWS Sterling, VA

Home | Current Version | Previous Version | Text Only | Print | Product List | Glossary On
Versions: 1 2 3 4 5 6 7 8 9 10 11 12 13 14 15 16 17 18 19 20 21 22 23 24 25 26 27 28 29 30 31 32 33 34 35 36 37 38 39 40 41 42 43 44 45 46 47 48 49 50
000
ASUS41 KLWX 032210
RWRLWX

REGIONAL WEATHER ROUNDUP
NATIONAL WEATHER SERVICE BALTIMORE MD/WASHINGTON DC
600 PM EDT THU SEP 03 2015

Note: "FAIR" indicates few or no clouds below 12,000 feet
with no significant weather and/or obstructions to visibility.
 TC=TEMPERATURE CELSIUS

 * =Non NWS site. Station does not report precipitation (e.g. rain,
    snow, etc.), thunder, or fog.

DCZ001-MDZ009-015-VAZ040>042-051-053>054-032300-
WASHINGTON METRO

CITY           SKY/WX    TMP DP  RH WIND       PRES   REMARKS
WASHINGTON NAT TSTM      84  66  54 SE15G24   29.86R
DULLES         PTSUNNY   92  64  39 W9        29.85S HX  93
ANDREWS AFB    LGT RAIN  82  70  65 W5        29.85S
FT BELVOIR     SUNNY     92  66  42 VRB3      29.84R HX  95
QUANTICO       MOSUNNY   89  68  49 NW5       29.84F HX  93
COLLEGE PARK*  CLOUDY    88  68  51 S3        29.84R HX  91
LEESBURG*      MOSUNNY   90  68  48 NW5       29.87S HX  93
MANASSAS*      SUNNY     90  70  51 CALM      29.85F HX  95
GAITHERSBURG*  PTSUNNY   90  66  45 CALM      29.89S HX  92

$$

MDZ006>007-011-014-032300-
BALTIMORE METRO

CITY           SKY/WX    TMP DP  RH WIND       PRES   REMARKS
BWI AIRPORT    PTSUNNY   90  70  51 SE9       29.83F HX  95
MD SCIENCE CTR   N/A     91  66  43 MISG      29.84S HX  93
MARTIN STATE   MOSUNNY   88  77  70 SE3       29.84F HX 100
ANNAPOLIS      SUNNY     86  72  62 SE5       29.83F HX  92
FORT MEADE*    MOSUNNY   82  72  69 S6        29.86S

$$

MDZ012-015-019>023-032300-
MARYLAND EASTERN SHORE

CITY           SKY/WX    TMP DP  RH WIND       PRES   REMARKS
OCEAN CITY     SUNNY     83  70  64 S5        29.85R
SALISBURY      MOSUNNY   84  72  67 S7        29.84R
BAY BRIDGE AP*   N/A     90  64  43 CALM      29.84S HX  91
EASTON*        MOSUNNY   90  68  48 NW6       29.87F HX  93

$$

MDZ017>025-032300-
SOUTHERN MARYLAND

CITY           SKY/WX    TMP DP  RH WIND       PRES   REMARKS
PATUXENT RIVER PTSUNNY   85  68  56 NW7       29.84F
ST INIGOES     MOSUNNY   88  72  58 S3        29.84S HX  94
LEONARDTOWN*   NOT AVBL

$$

MDZ003>005-032300-
NORTH CENTRAL MARYLAND

CITY           SKY/WX    TMP DP  RH WIND       PRES   REMARKS
FREDERICK*     SUNNY     91  70  49 N6        29.88S HX  97
HAGERSTOWN APT PTSUNNY   88  66  48 SW6       29.88S HX  90
WESTMINSTER*   PTSUNNY   88  64  45 CALM      29.89R

$$

MDZ501>502-032300-
WESTERN MARYLAND

CITY           SKY/WX    TMP DP  RH WIND       PRES   REMARKS
OAKLAND*       PTSUNNY   73  66  78 W5        30.04F
CUMBERLAND*    PTSUNNY   81  68  65 CALM      29.93F

$$

VAZ025>031-032300-
SHENANDOAH VALLEY

CITY           SKY/WX    TMP DP  RH WIND       PRES   REMARKS
WINCHESTER*    MOSUNNY   79  68  69 S7        29.90R
FRONT ROYAL*   FAIR      82  68  61 CALM      29.88R
LURAY*         FAIR      82  68  61 SW5       29.90S
NEW MARKET*    FAIR      78  73  87 CALM      29.89F
STAUNTON*      PTSUNNY   87  64  45 CALM      29.95S
WAYNESBORO*    FAIR      87  65  47 CALM      29.95S

$$

WVZ021-048>050-054>055-032300-
EASTERN WEST VIRGINIA PANHANDLE

CITY           SKY/WX    TMP DP  RH WIND       PRES   REMARKS
MARTINSBURG    MOSUNNY   90  63  40 N7        29.87F HX  91
PETERSBURG*    CLOUDY    82  69  66 S3        29.92S

$$

VAZ036>039-050-032300-
CENTRAL FOOTHILLS

CITY           SKY/WX    TMP DP  RH WIND       PRES   REMARKS
CHARLOTTESVILL MOSUNNY   83  70  64 NW6       29.88S
CULPEPER*      PTSUNNY   84  68  59 CALM      29.87S
ORANGE*        PTSUNNY   86  68  54 NW5       29.88F
GORDONSVILLE*  FAIR      85  69  58 CALM      29.86S
WARRENTON*     FAIR      89  72  56 CALM      29.86S HX  96

$$

VAZ055>057-032300-
NORTH AND CENTRAL PIEDMONT

CITY           SKY/WX    TMP DP  RH WIND       PRES   REMARKS
FREDERICKSBRG* MOSUNNY   90  66  44 N3        29.83F HX  92
STAFFORD*      MOSUNNY   88  65  46 CALM      29.89S HX  90

$$

NCZ024-NYZ072-PAZ021-071-VAZ022-071-032300-
OTHER REGIONAL OBSERVATIONS

CITY           SKY/WX    TMP DP  RH WIND       PRES   REMARKS
NEW YORK CITY  SUNNY     91  59  33 VRB6      29.85S HX  90
PHILADELPHIA   MOSUNNY   94  61  33 N12       29.82F HX  94
PITTSBURGH     CLOUDY    85  64  49 W7        29.95R
ROANOKE        PTSUNNY   88  60  38 N12       29.95S
RICHMOND       MOSUNNY   88  68  51 S5        29.85F HX  91
RALEIGH        PTSUNNY   88  66  48 CALM      29.88F HX  90

$$

ANZ530>537-032300-
MARINE OBSERVATIONS

STATION/POSITION TIME  TEMP    WIND        PRES
                       AIR SEA DIR/SP/G
                 (UTC) (F)     (DEG/KT/KT) (MB)
THOMAS PT LIGHT  2200   83 80  210/  8/  9 1011.0
BALT KEY BRIDGE  2100   85     130/  7/  9 1010.2F
COVE POINT       2100   84     300/  2/  5 1011.5F
LEWISETTA        2100   84 81  110/  4/  5 1010.4F
SOLOMONS ISLAND  2100      83                N/A
PINEY POINT      2105           CALM  /  1   N/A

$$



USA.gov is the U.S. government's official web portal to all federal, state and local government web resources and services.